HISPASAT 30W-6 (43228 NORAD) Tracking and Keplerian Element Data

This shows tracking and keplerian element data for the satellite.

Feedback or suggestion? Click here.




ElementValue
Catalog43228
NameHISPASAT 30W-6
Epoch Orbit394
Epoch Day78.46924595
Epoch Year2019
RAAN40.3403
Inclination0.0489
Eccentricity0.0005641
Argument of Perigee334.2285
Mean Anonmoly301.0358
Mean Motion1.00270696
Decay Rate-2.41E-06
L11 43228U 18023A 19078.46924595 -.00000241 00000-0 00000-0 0 9990
L22 43228 0.0489 40.3403 0005641 334.2285 301.0358 1.00270696 3946

Live tracking and technical data element details for HISPASAT 30W-6 (NORAD 43228). HISPASAT 30W-6 can be tracked NOW for your location showing map with azimuth and elevation plus other details from your city location.

Track the satellite on the map from your city or location and see movement details for azimuth, elevation, latitude, longitude, range, height, and movement on the map or in text.







IsCatalogInMostPopularTable: catalog: 43228, numindb: 274
Update: records affected: 1



GetName: 43228 HISPASAT 30W-6

Hit Count: updated at: Thu, 21 Mar 2019 01:57:56 GMT